Location: Chin
(49.7667°N, 112.4500°W)
Time: 11:45:14
(UTC+00:00)

N. Korean satellite - Pass Details

Date: 10 December 2021
Orbit: 447 x 490 km, 97.3° (Epoch: 27 January)

Event Time Altitude Azimuth Distance (km) Brightness Sun altitude
Rises 00:00:36 0° 174° (S) 2,505 10.5 -5.1°
Reaches altitude 10° 00:02:41 10° 179° (S) 1,625 9.6 -5.4°
Maximum altitude 00:06:07 58° 259° (W) 547 7.2 -5.9°
Drops below altitude 10° 00:09:32 10° 340° (NNW) 1,614 9.1 -6.4°
Sets 00:11:36 0° 344° (NNW) 2,486 10.0 -6.7°
